Walla Walla, WA
on Tuesday, December 4, 2012

Tuesday
Previous Day Next Day
Daily Summary
 ActualAverage (KPDT)Record (KPDT)
Temperature
Mean Temperature °F 35°F  
Max Temperature 61°F 41°F 70°F (1923)
Min Temperature 48°F 29°F -1°F (1972)
Degree Days
Heating Degree Days 10 30  
Month to date heating degree days 118  
Since 1 July heating degree days 1371  
Cooling Degree Days 0 0  
Month to date cooling degree days 0  
Year to date cooling degree days 636  
Growing Degree Days4 (Base °F )  
Moisture
Dew Point 42°F   
Average Humidity 57    
Maximum Humidity 72    
Minimum Humidity 37    
Precipitation
Precipitation 0.16 in 0.05 in 1.25 in (1978)
Month to date precipitation 0.21  
Year to date precipitation 11.40  
Snow
Snow 0.00 in 0.20 in 3.50 in (1978)
Month to date snowfall 0.6  
Year to date snowfall 9.8  
Since 1 July snowfall 2.1  
Snow Depth in   
Wind
Wind Speed 21 mph   
Max Wind Speed 30 mph   
Max Gust Speed 43 mph   
Visibility 10 miles   
Events Rain   

Key: T is trace of precipitation, MM is missing value
Source: NWS Daily Summary
Time(PST)TemperatureDew PointHumidity Pressure Visibility Wind DirectionWind SpeedGust SpeedPrecipitationEvents Conditions
12:53 AM 55.9°F 30.0°F 37% 29.79 in 10.0 miles South 21.9 mph 32.2 mph N/A   Mostly Cloudy
1:53 AM 50.0°F 37.9°F 63% 29.82 in 10.0 miles SSE 21.9 mph 31.1 mph 0.00 in Rain Light Rain
2:53 AM 48.9°F 39.0°F 69% 29.76 in 9.0 miles SSE 24.2 mph 41.4 mph 0.05 in Rain Light Rain
3:53 AM 52.0°F 39.9°F 63% 29.73 in 9.0 miles SSE 23.0 mph 32.2 mph 0.03 in Rain Rain
4:53 AM 55.9°F 42.1°F 60% 29.74 in 10.0 miles South 28.8 mph 34.5 mph 0.03 in   Overcast
5:53 AM 57.0°F 42.1°F 57% 29.76 in 10.0 miles South 29.9 mph 42.6 mph N/A   Overcast
6:53 AM 57.0°F 42.1°F 57% 29.80 in 10.0 miles South 23.0 mph 33.4 mph N/A   Overcast
7:53 AM 57.0°F 43.0°F 59% 29.82 in 10.0 miles South 21.9 mph 32.2 mph N/A   Overcast
8:53 AM 55.9°F 42.1°F 60% 29.83 in 10.0 miles SSE 16.1 mph 23.0 mph N/A   Overcast
9:53 AM 57.0°F 42.1°F 57% 29.84 in 10.0 miles SSE 20.7 mph 26.5 mph N/A   Overcast
10:53 AM 57.9°F 42.1°F 56% 29.83 in 10.0 miles South 20.7 mph 26.5 mph N/A   Overcast
11:53 AM 60.1°F 43.0°F 53% 29.82 in 10.0 miles South 19.6 mph 25.3 mph N/A   Overcast
12:53 PM 61.0°F 43.0°F 52% 29.81 in 10.0 miles South 20.7 mph 29.9 mph N/A   Overcast
1:53 PM 59.0°F 44.1°F 58% 29.81 in 10.0 miles South 11.5 mph 20.7 mph 0.00 in   Overcast
2:53 PM 55.9°F 46.9°F 72% 29.83 in 8.0 miles South 9.2 mph - 0.02 in Rain Light Rain
3:53 PM 57.0°F 46.0°F 67% 29.81 in 10.0 miles SSE 11.5 mph 16.1 mph 0.02 in   Overcast
4:53 PM 59.0°F 44.1°F 58% 29.78 in 10.0 miles South 17.3 mph - 0.01 in   Mostly Cloudy
5:53 PM 59.0°F 43.0°F 55% 29.77 in 10.0 miles South 18.4 mph 26.5 mph N/A   Mostly Cloudy
6:53 PM 60.1°F 43.0°F 53% 29.76 in 10.0 miles South 16.1 mph 24.2 mph N/A   Overcast
7:53 PM 60.1°F 43.0°F 53% 29.76 in 10.0 miles South 17.3 mph 27.6 mph 0.00 in   Overcast
8:53 PM 60.1°F 43.0°F 53% 29.75 in 10.0 miles South 20.7 mph - N/A   Mostly Cloudy
9:53 PM 61.0°F 43.0°F 52% 29.75 in 10.0 miles South 17.3 mph 26.5 mph N/A   Overcast
10:53 PM 61.0°F 43.0°F 52% 29.73 in 10.0 miles South 21.9 mph - N/A   Overcast
11:53 PM 61.0°F 43.0°F 52% 29.74 in 10.0 miles South 19.6 mph 28.8 mph N/A   Overcast
Moon Phase
Dec. 04 Dec. 06 Dec. 13 Dec. 20 Dec. 28
Sunrise:07:18 AM (PST) Moon Rise:10:13 PM (PST)12/4
Sunset:04:08 PM (PST) Moon Set:11:03 AM (PST)12/4

Copyright © 2014 The Weather Underground, Inc.